sat.trackr.live / text

‹ back to catalog

STARLINK-2707

NORAD 48669 · 2021-044AH

PAYLOAD ACTIVE UNKNOWN

§ Identity

Operator
Country
US
Launch date
2021-05-26
Launch site
AFETR
Launch vehicle
Mass (kg)
RCS (m²)

Purposes: comms

External: N2YO · Heavens-Above · Gunter

§ Orbital elements

Epoch: 2026-05-25T04:04:08.574816Z

Period
94.01 min
Inclination
53.1585°
Eccentricity
0.0001020
Mean motion
15.31701972 rev/d
Perigee alt
470.0 km
Apogee alt
471.4 km
Semi-major
6,848.9 km
B*
-6.8353e-6
RAAN
108.3691°
Arg perigee
86.0292°
Mean anomaly
274.0826°
Rev number
27,567

§ Raw data

STARLINK-27071 48669U 21044AH  26145.16954369 -.00000577  00000+0 -68353-5 0  99952 48669  53.1585 108.3691 0001020  86.0292 274.0826 15.31701972275672

JSON: /api/v1/satellites/48669 · /tle

For live sub-satellite position, see the globe view (requires WebGL).

§ Visibility from observer

Set your observer location to see the next 7 days of passes ≥ 10°. The values pass through the URL so the page stays shareable.

No JS? Fill the form by hand. The geolocation button needs JavaScript.